TimeCDT,TemperatureF,Dew PointF,Humidity,Sea Level PressureIn,VisibilityMPH,Wind Direction,Wind SpeedMPH,Gust SpeedMPH,PrecipitationIn,Events,Conditions,WindDirDegrees,DateUTC
12:53 AM,73.9,68.0,82,29.98,10.0,SE,4.6,-,N/A,,Clear,140,2013-08-02 05:53:00
1:53 AM,72.0,68.0,87,29.95,10.0,South,5.8,-,N/A,,Clear,170,2013-08-02 06:53:00
2:53 AM,71.1,68.0,90,29.93,10.0,South,4.6,-,N/A,,Clear,170,2013-08-02 07:53:00
3:53 AM,72.0,66.9,84,29.94,10.0,Calm,Calm,-,N/A,,Clear,0,2013-08-02 08:53:00
4:53 AM,71.1,66.9,87,29.92,10.0,South,8.1,-,N/A,,Clear,170,2013-08-02 09:53:00
5:53 AM,71.1,68.0,90,29.93,10.0,South,5.8,-,N/A,,Clear,180,2013-08-02 10:53:00
6:53 AM,72.0,69.1,91,29.94,8.0,SSE,6.9,-,N/A,,Clear,160,2013-08-02 11:53:00
7:53 AM,73.0,70.0,90,29.96,7.0,SSE,5.8,-,N/A,,Clear,160,2013-08-02 12:53:00
8:53 AM,73.9,70.0,87,29.94,8.0,SSE,6.9,-,N/A,,Clear,160,2013-08-02 13:53:00
9:53 AM,77.0,71.1,82,29.95,9.0,South,10.4,-,N/A,,Clear,170,2013-08-02 14:53:00
10:53 AM,78.1,71.1,79,29.96,10.0,South,8.1,-,N/A,,Clear,180,2013-08-02 15:53:00
11:53 AM,77.0,73.0,88,29.95,9.0,South,6.9,-,0.00,Rain,Light Rain,190,2013-08-02 16:53:00
12:53 PM,80.1,72.0,76,29.92,10.0,SSW,10.4,-,0.00,,Clear,200,2013-08-02 17:53:00
1:53 PM,82.0,73.0,74,29.89,10.0,South,10.4,-,0.00,,Scattered Clouds,190,2013-08-02 18:53:00
2:53 PM,84.0,73.9,72,29.90,10.0,SSE,9.2,-,N/A,,Clear,160,2013-08-02 19:53:00
3:53 PM,84.9,73.0,67,29.88,10.0,South,10.4,18.4,N/A,,Clear,180,2013-08-02 20:53:00
4:53 PM,86.0,73.9,67,29.87,10.0,South,11.5,-,N/A,,Clear,170,2013-08-02 21:53:00
5:53 PM,84.9,75.0,72,29.87,10.0,South,9.2,-,N/A,,Clear,170,2013-08-02 22:53:00
6:53 PM,84.9,75.0,72,29.88,10.0,South,6.9,-,N/A,,Partly Cloudy,180,2013-08-02 23:53:00
7:53 PM,84.0,75.0,74,29.87,10.0,South,10.4,-,N/A,,Partly Cloudy,170,2013-08-03 00:53:00
8:53 PM,80.1,75.0,85,29.88,10.0,South,4.6,-,N/A,,Clear,170,2013-08-03 01:53:00
9:53 PM,79.0,75.0,88,29.88,10.0,South,6.9,-,N/A,,Clear,190,2013-08-03 02:53:00
10:53 PM,79.0,75.0,88,29.88,10.0,South,8.1,-,N/A,,Clear,180,2013-08-03 03:53:00
11:53 PM,78.1,75.0,90,29.89,10.0,South,4.6,-,N/A,,Clear,190,2013-08-03 04:53:00